User: anonymous   Login
Location: Hickory_Viewmont
(35.7830°N, 81.3170°W)
Time: 16:52:19
(UTC-05:00)
Language:

Okean-O - Orbit

View from above orbital plane
View from above orbital plane
View from above satellite
View from above satellite

Ground track
Ground track

The orbit data is extracted from the following two-line orbital elements,

1 25860U 99039A   14350.87022263  .00001720  00000-0  25934-3 0  4423
2 25860 098.0696 313.9440 0001553 121.0545 269.9121 14.75660439829090
Epoch (UTC): 16 December 2014 20:53:07
Eccentricity: 0.0001553
inclination: 98.0696°
perigee height: 642 km
apogee height: 644 km
right ascension of ascending node: 313.9440°
argument of perigee: 121.0545°
revolutions per day: 14.75660439
mean anomaly at epoch: 269.9121°
orbit number at epoch: 82909

The dashed part of the orbit path shows where the satellite is in the earth's shadow,  

DLR